Powrót do katalogu

STARLINK-33967

AktywnyŁącznośćVLEO
NORAD 64027·PAYLOAD·🇺🇸 United States

Wystrzelony May 16, 2025 z Vandenberg Space Force Base

Loading…

Następne Przeloty (najbliższe 24 godziny)

TLE

ŚwieżeSource: CelesTrak SupGP

Epoka: Sep 15, 2026, 02:17 UTC

1 64027C 25102F   26258.09562500  .00083626  00000+0  29091-2 0  2584
2 64027  70.0009 355.3456 0003283 268.5341  39.4787 15.29536804    15

Śledź STARLINK-33967 w czasie rzeczywistym z AllMySat

Download on the App Store